sat.trackr.live / text

‹ back to catalog

STARLINK-31579

NORAD 59267 · 2024-050P

PAYLOAD ACTIVE UNKNOWN

§ Identity

Operator
Country
US
Launch date
2024-03-19
Launch site
AFWTR
Launch vehicle
Mass (kg)
RCS (m²)

Purposes: comms

External: N2YO · Heavens-Above · Gunter

§ Orbital elements

Epoch: 2026-05-24T19:44:07.564128Z

Period
94.11 min
Inclination
53.1600°
Eccentricity
0.0001180
Mean motion
15.30192433 rev/d
Perigee alt
474.4 km
Apogee alt
476.0 km
Semi-major
6,853.4 km
B*
4.0105e-5
RAAN
187.4471°
Arg perigee
85.8396°
Mean anomaly
274.2740°
Rev number
12,220

§ Raw data

STARLINK-315791 59267U 24050P   26144.82230977  .00000829  00000+0  40105-4 0  99972 59267  53.1600 187.4471 0001180  85.8396 274.2740 15.30192433122201

JSON: /api/v1/satellites/59267 · /tle

For live sub-satellite position, see the globe view (requires WebGL).

§ Visibility from observer

Set your observer location to see the next 7 days of passes ≥ 10°. The values pass through the URL so the page stays shareable.

No JS? Fill the form by hand. The geolocation button needs JavaScript.